DW3361 Weather Reports


time (UTC)temp
C
wind
direction
speed
KPH
gust
KPH
rain 1hr
cm
rain 24hr
cm
rain mn
cm
humidity
%
barometer
mb
20260906023003 15 210 0.0 0.0 0.00 0.20 0.03 89 1022.9
20260906021501 15 210 0.0 0.0 0.03 0.20 0.03 89 1022.6
20260906020100 15 210 0.0 0.0 0.03 0.20 0.03 89 1022.6
20260906014559 15 210 0.0 0.0 0.03 0.20 0.03 89 1022.5
20260906013058 15 210 0.0 0.0 0.03 0.20 0.03 89 1022.4
20260906011557 15 210 0.0 0.0 0.00 0.18 0.00 89 1022.4
20260906010136 15 210 0.0 0.0 0.00 0.18 0.00 89 1022.3
20260906004614 15 210 0.0 0.0 0.00 0.18 0.00 89 1022.2
20260906003054 15 210 0.0 0.0 0.00 0.18 0.00 88 1022.3
20260906001602 15 210 0.0 0.0 0.00 0.18 0.00 88 1022.2
20260906000052 15 210 0.0 0.0 0.00 0.18 0.00 89 1022.0
20260905234548 15 210 0.0 0.0 0.00 0.18 0.00 89 1021.9
20260905233049 16 210 0.0 0.0 0.00 0.18 0.00 89 1021.9
20260905231547 16 210 0.0 0.0 0.00 0.18 0.00 89 1021.9
20260905230046 16 210 0.0 0.0 0.00 0.18 0.00 89 1021.7
20260905224544 16 210 0.0 0.0 0.00 0.18 0.00 88 1021.7
20260905223051 16 210 0.0 3.2 0.00 0.18 0.00 88 1021.9
20260905221543 16 210 0.0 0.0 0.00 0.18 0.00 88 1021.8
20260905220040 16 210 0.0 0.0 0.00 0.18 0.00 89 1021.6
20260905214544 16 210 0.0 0.0 0.00 0.18 0.18 88 1021.5
20260905213041 16 210 0.0 0.0 0.00 0.18 0.18 89 1021.4
20260905211537 16 210 0.0 1.6 0.00 0.18 0.18 88 1021.3
20260905210048 16 210 0.0 0.0 0.00 0.18 0.18 88 1021.3
20260905204536 16 210 0.0 0.0 0.00 0.18 0.18 88 1021.2
20260905203037 16 210 0.0 0.0 0.00 0.18 0.18 88 1021.0
20260905201533 16 210 0.0 0.0 0.00 0.18 0.18 88 1020.8
20260905200056 16 210 0.0 0.0 0.00 0.18 0.18 87 1021.0
20260905194530 16 210 0.0 0.0 0.00 0.18 0.18 86 1020.6
20260905193035 16 210 0.0 0.0 0.00 0.18 0.18 85 1020.4
20260905191525 16 210 0.0 0.0 0.00 0.18 0.18 85 1020.1
20260905190026 16 210 0.0 0.0 0.00 0.18 0.18 85 1019.9
20260905184533 16 210 0.0 0.0 0.00 0.18 0.18 79 1019.7
20260905183034 17 210 0.0 0.0 0.00 0.18 0.18 79 1019.6
20260905181520 17 210 0.0 0.0 0.00 0.18 0.18 78 1019.4
20260905180019 17 210 0.0 0.0 0.00 0.18 0.18 75 1019.2
20260905174521 18 210 0.0 0.0 0.00 0.18 0.18 75 1018.9
20260905173020 18 210 0.0 0.0 0.00 0.18 0.18 74 1018.6
20260905171516 18 210 0.0 0.0 0.00 0.18 0.18 73 1018.5
20260905170016 20 210 0.0 0.0 0.00 0.18 0.18 72 1018.4
20260905164516 20 210 0.0 0.0 0.00 0.18 0.18 70 1018.0
20260905163015 21 210 0.0 0.0 0.00 0.18 0.18 68 1017.9
20260905161514 21 210 0.0 0.0 0.00 0.18 0.18 65 1017.9
20260905160014 21 210 0.0 0.0 0.00 0.18 0.18 69 1017.9
20260905154513 20 210 0.0 0.0 0.00 0.18 0.18 70 1017.8
20260905153024 20 210 0.0 3.2 0.00 0.18 0.18 72 1017.8
20260905151512 19 200 0.0 1.6 0.00 0.18 0.18 72 1017.8
20260905150019 19 200 0.0 0.0 0.00 0.18 0.18 72 1017.9
20260905144515 19 200 0.0 0.0 0.00 0.18 0.18 71 1018.0
20260905143012 19 200 0.0 0.0 0.00 0.18 0.18 70 1018.0
20260905141513 18 200 0.0 0.0 0.00 0.18 0.18 72 1018.1
20260905140010 18 125 0.0 0.0 0.00 0.18 0.18 75 1018.4
20260905134518 18 125 0.0 0.0 0.00 0.18 0.18 74 1018.2
20260905133010 18 125 0.0 1.6 0.05 0.18 0.18 73 1018.1
20260905131510 18 148 0.0 0.0 0.15 0.18 0.18 73 1018.2
20260905130008 18 71 0.0 0.0 0.18 0.18 0.18 71 1018.5
20260905124512 18 326 0.0 1.6 0.18 0.18 0.18 70 1018.5
20260905123027 19 304 4.8 11.3 0.15 0.15 0.15 67 1018.8
20260905121506 21 75 3.2 11.3 0.05 0.05 0.05 56 1019.2
20260905120006 22 78 0.0 3.2 0.00 0.00 0.00 47 1018.9
20260905114501 23 192 0.0 4.8 0.00 0.00 0.00 46 1018.4
20260905113107 23 190 0.0 6.4 0.00 0.00 0.00 46 1017.9
20260905111601 23 206 0.0 8.0 0.00 0.00 0.00 46 1017.9
20260905110057 23 209 0.0 9.7 0.00 0.00 0.00 46 1018.0
20260905104557 22 273 6.4 16.1 0.00 0.00 0.00 44 1017.8
20260905103103 23 207 0.0 17.7 0.00 0.00 0.00 44 1018.0
20260905101555 24 290 11.3 20.9 0.00 0.00 0.00 43 1017.8
20260905100100 24 234 1.6 14.5 0.00 0.00 0.00 44 1017.8
20260905094549 23 247 3.2 17.7 0.00 0.00 0.00 47 1017.5
20260905093048 22 244 6.4 16.1 0.00 0.00 0.00 50 1017.4
20260905091552 23 196 4.8 16.1 0.00 0.00 0.00 51 1017.8
20260905090042 22 230 1.6 11.3 0.00 0.00 0.00 61 1017.5
20260905084539 22 209 6.4 25.7 0.00 0.00 0.00 62 1017.1
20260905083038 22 190 0.0 17.7 0.00 0.00 0.00 65 1017.0
20260905081535 22 207 0.0 25.7 0.00 0.00 0.00 66 1016.6
20260905080057 23 221 4.8 20.9 0.00 0.00 0.00 67 1016.3
20260905074530 22 227 6.4 19.3 0.00 0.00 0.00 73 1015.7
20260905073026 21 214 0.0 0.0 0.00 0.00 0.00 78 1015.1
20260905071520 21 214 0.0 0.0 0.00 0.00 0.00 80 1014.7
20260905070019 20 214 0.0 0.0 0.00 0.00 0.00 80 1014.6
20260905064513 20 214 0.0 0.0 0.00 0.00 0.00 81 1014.4
20260905063010 19 214 0.0 0.0 0.00 0.00 0.00 81 1014.2
20260905061508 18 214 0.0 0.0 0.00 0.00 0.00 82 1014.2
20260905060011 17 214 0.0 0.0 0.00 0.00 0.00 85 1014.0
20260905054611 16 214 0.0 0.0 0.00 0.00 0.00 89 1013.9
20260905053109 15 214 0.0 0.0 0.00 0.00 0.00 88 1013.7
20260905051556 14 214 0.0 0.0 0.00 0.00 0.00 87 1013.6
20260905050050 14 214 0.0 0.0 0.00 0.00 0.00 87 1013.4
20260905044548 14 214 0.0 0.0 0.00 0.00 0.00 87 1013.2
20260905043103 14 214 0.0 0.0 0.00 0.00 0.00 86 1012.8
20260905041543 14 214 0.0 0.0 0.00 0.00 0.00 86 1012.6
20260905040049 14 214 0.0 0.0 0.00 0.00 0.00 86 1012.6
20260905034543 14 214 0.0 0.0 0.00 0.00 0.00 86 1012.5
20260905033039 14 214 0.0 0.0 0.00 0.00 0.00 84 1012.4
20260905031541 15 214 0.0 0.0 0.00 0.00 0.00 83 1012.3
20260905030040 15 214 0.0 0.0 0.00 0.00 0.00 82 1012.3
20260905024535 15 214 0.0 0.0 0.00 0.00 0.00 79 1012.2